Regional Weather Roundup
Issued by NWS

Home | Current Version | Previous Version | Text Only | Print | Product List | Glossary On
Versions: 1 2 3 4 5 6 7 8 9 10 11 12 13 14 15 16 17 18 19 20 21 22 23 24 25 26 27 28 29 30 31 32 33 34 35 36 37 38 39 40 41 42 43 44 45 46 47 48 49 50
000
ASUS43 KDTX 280601
RWRMI
MICHIGAN HOURLY REGIONAL WEATHER ROUNDUP
NATIONAL WEATHER SERVICE DETROIT/PONTIAC MI
100 AM EST SAT FEB 28 2015

NOTE: "FAIR" INDICATES FEW OR NO CLOUDS BELOW 12,000 FEET WITH NO
SIGNIFICANT WEATHER AND/OR OBSTRUCTION TO VISIBILITY.

MIZ047>049-052>055-059>063-066>070-074>076-081>083-280700-
SOUTHEAST LOWER MICHIGAN

CITY           SKY/WX    TMP DP  RH WIND       PRES   REMARKS
ADRIAN         PTCLDY     0  -7  72 CALM      30.66S
6HR MIN TEMP:  -1; 6HR MAX TEMP:  12;

ALMA           CLEAR      7   0  73 SW3       30.61S
ANN ARBOR      PTCLDY    -6 -11  79 CALM      30.65S
BAD AXE        CLEAR      3  -2  78 SW5       30.62R WCI  -6
CARO           CLEAR     -2  -6  86 CALM      30.62R
DETROIT CITY   CLEAR     11  -2  56 SW8       30.67R WCI  -1
6HR MIN TEMP:  11; 6HR MAX TEMP:  18;

DETROIT        CLEAR      5  -4  66 S5        30.67S WCI  -4
6HR MIN TEMP:   3; 6HR MAX TEMP:  14;

FLINT          CLEAR      8  -2  63 S8        30.63S WCI  -4
6HR MIN TEMP:   8; 6HR MAX TEMP:  15;

GROSSE ILE     CLEAR      9  -2  61 SW5       30.66S WCI   0
HILLSDALE      PTCLDY     4  -4  72 CALM      30.60F
HOWELL         CLEAR      6  -2  71 SW3       30.62S
6HR MIN TEMP:   5; 6HR MAX TEMP:  13;


CITY           SKY/WX    TMP DP  RH WIND       PRES   REMARKS
JACKSON        CLEAR      1  -4  79 SW5       30.62S WCI  -9
6HR MIN TEMP:   0; 6HR MAX TEMP:  12;

LAMBERTVILLE   PTCLDY     1  -6  71 CALM      30.68S
LANSING        CLEAR      6  -3  66 SW8       30.63S WCI  -7
6HR MIN TEMP:   6; 6HR MAX TEMP:  15;

LAPEER         FAIR      -1  -6  78 CALM      30.63R
MASON          CLEAR      1  -6  75 CALM      30.63R
MONROE         PTCLDY     1  -6  71 CALM      30.66S
MT. CLEMENS    CLEAR      9  -2  62 SW6       30.64S WCI  -1
6HR MIN TEMP:   0; 6HR MAX TEMP:  10;

PONTIAC        CLEAR      4  -4  69 W3        30.61S
6HR MIN TEMP:   2; 6HR MAX TEMP:  13;

PORT HOPE        N/A      8  -2  63 SW5       30.60R WCI   0
6HR MIN TEMP:   8; 6HR MAX TEMP:  13;

PORT HURON     CLEAR     -6  -9  84 CALM      30.66R
TRI CITIES     CLEAR      8   0  69 SW7       30.63R WCI  -3
6HR MIN TEMP:   8; 6HR MAX TEMP:  14;

TROY           CLEAR     10  -2  59 CALM      30.67S
SAGINAW HB     CLEAR      7   1  78 SW6       30.63R WCI  -3
$$
MIZ043>046-050>051-056>058-064>065-071>073-077>080-280700-
SOUTHWEST LOWER MICHIGAN

CITY           SKY/WX    TMP DP  RH WIND       PRES   REMARKS
BATTLE CREEK   CLEAR      4  -6  63 SW8       30.62S WCI  -9
6HR MIN TEMP:   2; 6HR MAX TEMP:  14;

BENTON HARBOR  CLEAR     -2  -5  87 CALM      30.66S
6HR MIN TEMP:  -3; 6HR MAX TEMP:  12;

BIG RAPIDS     PTCLDY    -2  -5  89 CALM      30.56S
6HR MIN TEMP:  -2; 6HR MAX TEMP:  13;

COLDWATER      PTCLDY    -3  -7  82 CALM      30.63S
6HR MIN TEMP:  -4; 6HR MAX TEMP:  13;

FREMONT        FAIR       0  -4  83 CALM      30.60R
HOLLAND        CLEAR      4  -3  73 S7        30.63S WCI  -8
6HR MIN TEMP:   4; 6HR MAX TEMP:  14;

GRAND RAPIDS   CLEAR      7  -2  66 SW10      30.61F WCI  -8
6HR MIN TEMP:   7; 6HR MAX TEMP:  14;

IONIA          FAIR       8   0  70 SW7       30.60S WCI  -4
KALAMAZOO      CLEAR      2  -6  69 SW5       30.64R WCI  -8
6HR MIN TEMP:   2; 6HR MAX TEMP:  13;

LUDINGTON      PTCLDY    18   7  61 W9        30.59S WCI   7
6HR MIN TEMP:  16; 6HR MAX TEMP:  18;

MARSHALL       CLEAR     -4  -7  87 CALM      30.62F
MOUNT PLEASANT CLEAR      8   1  72 S5        30.60R WCI   0
6HR MIN TEMP:   8; 6HR MAX TEMP:  15;

MUSKEGON       PTCLDY    15   5  64 W9        30.62S WCI   3
6HR MIN TEMP:  13; 6HR MAX TEMP:  18;

SOUTH HAVEN    CLEAR      8   1  72 S5        30.65R WCI   0
$$
MIZ016>042-280700-
NORTHERN LOWER MICHIGAN

CITY           SKY/WX    TMP DP  RH WIND       PRES   REMARKS
ALPENA         CLEAR      2  -4  76 S5        30.55R WCI  -8
6HR MIN TEMP:  -5; 6HR MAX TEMP:  15;

BEAVER ISLAND  CLEAR     13   5  73 SW8       30.50R WCI   1
6HR MIN TEMP:  10; 6HR MAX TEMP:  14;

BELLAIRE       PTCLDY    10   3  72 SW3       30.55S
6HR MIN TEMP:  10; 6HR MAX TEMP:  13;

CADILLAC       CLEAR      3  -1  84 SW3       30.49S
CHARLEVOIX     CLEAR      9   2  74 CALM      30.55S
FRANKFORT      CLEAR     18   6  60 W10       30.55S WCI   6
GAYLORD        MOCLDY     6   1  80 SW8       30.47S WCI  -7
6HR MIN TEMP:   2; 6HR MAX TEMP:   8;

GRAYLING       PTCLDY     5  -1  76 SW5       30.51S WCI  -4
HARBOR SPRINGS FAIR       7   1  76 CALM      30.52R
HOUGHTON LAKE  CLEAR      5  -2  72 SW9       30.53S WCI  -9
6HR MIN TEMP:   1; 6HR MAX TEMP:  12;

MANISTEE       PTCLDY     1  -6  71 E3        30.57S
OSCODA         CLEAR      4  -4  70 S6        30.58R WCI  -7
PELLSTON       CLEAR     11   2  67 VRB5      30.51S WCI   3
6HR MIN TEMP:   1; 6HR MAX TEMP:  11;

ROGERS CITY    CLEAR      7   2  82 SW8       30.53S WCI  -6
TRAVERSE CITY  CLEAR      5   0  79 CALM      30.54S
6HR MIN TEMP:   5; 6HR MAX TEMP:  14;

$$
MIZ007>008-015-280700-
EASTERN UPPER MICHIGAN

CITY           SKY/WX    TMP DP  RH WIND       PRES   REMARKS
KINROSS        PTCLDY     3   1  92 SW5       30.47S WCI  -6
6HR MIN TEMP:   3; 6HR MAX TEMP:   9;

MACKINAC ISLAN CLEAR      9   2  75 SW9       30.48S WCI  -5
NEWBERRY       CLEAR      4   0  81 SW8       30.44S WCI  -9
6HR MIN TEMP:   2; 6HR MAX TEMP:   8;

S. S. MARIE    PTCLDY    -2  -8  76 E3        30.47R
6HR MIN TEMP:  -3; 6HR MAX TEMP:   9;

$$
MIZ004>006-011>014-085-280700-
CENTRAL UPPER MICHIGAN

CITY           SKY/WX    TMP DP  RH WIND       PRES   REMARKS
MANISTIQUE     PTCLDY    11  -1  58 W7        30.48R WCI   0
6HR MIN TEMP:  11; 6HR MAX TEMP:  16;

ESCANABA       CLEAR      9  -4  56 W9        30.51R WCI  -5
6HR MIN TEMP:   9; 6HR MAX TEMP:  16;

MENOMINEE      CLEAR      7  -6  56 W5        30.52S WCI  -2
6HR MIN TEMP:   7; 6HR MAX TEMP:  16;

SAWYER-GWINN   CLEAR      4  -8  58 W5        30.41S WCI  -5
$$
MIZ001>003-009>011-084-280700-
WESTERN UPPER MICHIGAN

CITY           SKY/WX    TMP DP  RH WIND       PRES   REMARKS
IRON MOUNTAIN  CLEAR      2  -9  60 CALM      30.44R
6HR MIN TEMP:   1; 6HR MAX TEMP:  17;

HOUGHTON       PTCLDY    10  -5  50 W20       30.38R WCI  -9
6HR MIN TEMP:   7; 6HR MAX TEMP:  12;

COPPER HARBOR    N/A     15  -3  44 VRB7      30.38S WCI   5
6HR MIN TEMP:   4; 6HR MAX TEMP:  17;

IRONWOOD       CLEAR      7  -4  61 SW13      30.41R WCI  -9
6HR MIN TEMP:   7; 6HR MAX TEMP:  12;

$$

ABBREVIATIONS USED IN REMARKS
   TC - TEMPERATURE IN CELSIUS
  WCI - WIND CHILL INDEX
   HX - HEAT INDEX
  VSB - VISIBILITY



USA.gov is the U.S. government's official web portal to all federal, state and local government web resources and services.